This demonstration page uses our WeatherBlox Daily Observations layout. Learn more.

Left ArrowRight Arrow

Hourly Observations for November 3, 2022

Temp ( °F °C ) Dew Point ( °F °C ) Humidity (%) Winds ( mph kmh ) Pressure ( in mb ) Visibility ( mi km ) Precip ( " mm )
12:53 am 00:53 Mostly Clear 60 15.6 55 12.8 83 83 S 21 33 29.94 1014 10 16 0.00 0.00
1:53 am 01:53 Mostly Clear 59 15 55 12.8 87 87 S 17 28 29.93 1014 10 16 0.00 0.00
2:53 am 02:53 Mostly Clear 59 15 55 12.8 87 87 S 20 31 29.93 1013 10 16 0.00 0.00
3:53 am 03:53 Mostly Clear 59 15 55 12.8 87 87 S 17 28 29.91 1013 10 16 0.00 0.00
4:53 am 04:53 Mostly Clear 59 15 55 12.8 87 87 S 16 26 29.91 1013 10 16 0.00 0.00
5:36 am 05:36 Mostly Cloudy 59 15 56 13.3 90 90 S 17 28 29.92 1013 10 16 0.00 0.00
5:53 am 05:53 Cloudy 59 15 56 13.3 90 90 S 16 26 29.91 1013 10 16 0.00 0.00
6:53 am 06:53 Cloudy 61 16.1 57 13.9 87 87 S 20 31 29.91 1013 10 16 0.00 0.00
7:53 am 07:53 Cloudy 60 15.6 57 13.9 90 90 S 17 28 29.90 1013 10 16 0.00 0.00
8:53 am 08:53 Cloudy 62 16.7 58 14.4 86 86 S 16 26 29.92 1013 10 16 0.00 0.00
9:20 am 09:20 Cloudy 63 17.2 58 14.4 84 84 S 20 31 29.92 1013 10 16 0.00 0.00
9:53 am 09:53 Cloudy 64 17.8 58 14.4 80 80 S 16 26 29.93 1014 10 16 0.00 0.00
10:53 am 10:53 Cloudy 66 18.9 58 14.4 75 75 S 28 44 29.91 1013 10 16 0.00 0.00
11:53 am 11:53 Cloudy 68 20 58 14.4 70 70 S 22 35 29.88 1012 10 16 0.00 0.00
12:53 pm 12:53 Cloudy 69 20.6 58 14.4 68 68 S 22 35 29.87 1012 10 16 0.00 0.00
1:53 pm 13:53 Cloudy 72 22.2 58 14.4 61 61 S 29 46 29.83 1010 10 16 0.00 0.00
2:16 pm 14:16 Cloudy 72 22.2 58 14.4 61 61 S 29 46 29.80 1009 10 16 0.00 0.00
2:53 pm 14:53 Mostly Cloudy 72 22.2 58 14.4 61 61 S 30 48 29.81 1010 10 16 0.00 0.00
3:53 pm 15:53 Mostly Cloudy 72 22.2 58 14.4 61 61 S 30 48 29.78 1009 10 16 0.00 0.00
4:53 pm 16:53 Mostly Cloudy 72 22.2 58 14.4 61 61 S 29 46 29.76 1008 10 16 0.00 0.00
5:53 pm 17:53 Mostly Cloudy 72 22.2 58 14.4 61 61 S 24 39 29.77 1008 10 16 0.00 0.00
6:53 pm 18:53 Mostly Cloudy 70 21.1 59 15 68 68 S 20 31 29.76 1008 10 16 0.00 0.00
7:53 pm 19:53 Mostly Cloudy 69 20.6 59 15 70 70 S 21 33 29.77 1008 10 16 0.00 0.00
8:49 pm 20:49 Cloudy 70 21 61 16 73 73 S 22 35 29.77 1008 10 16 0.00 0.00
8:53 pm 20:53 Cloudy 69 20.6 60 15.6 73 73 S 22 35 29.78 1009 10 16 0.00 0.00
9:53 pm 21:53 Mostly Cloudy 68 20 61 16.1 78 78 S 15 24 29.79 1009 10 16 0.00 0.00
10:35 pm 22:35 Cloudy 68 20 62 16.7 81 81 S 18 30 29.77 1008 10 16 0.00 0.00
10:53 pm 22:53 Cloudy 68 20 62 16.7 81 81 S 20 31 29.79 1009 10 16 0.00 0.00
11:53 pm 23:53 Cloudy 68 20 63 17.2 84 84 S 17 28 29.77 1008 10 16 0.00 0.00

Powered by AerisWeather